Regional Weather Roundup
Issued by NWS

Home | Current Version | Previous Version | Graphics & Text | Print | Product List | Glossary On
Versions: 1 2 3 4 5 6 7 8 9 10 11 12 13 14 15 16 17 18 19 20 21 22 23 24 25 26 27 28 29 30 31 32 33 34 35 36 37 38 39 40 41 42 43 44 45 46 47 48 49 50
000
ASUS43 KFSD 221810
RWRSD

WEATHER ROUNDUP FOR SOUTH DAKOTA
NATIONAL WEATHER SERVICE SIOUX FALLS SD
1200 PM CST WED NOV 22 2017

NOTE: "FAIR" INDICATES FEW OR NO CLOUDS BELOW 12,000 FEET WITH NO
SIGNIFICANT WEATHER AND/OR OBSTRUCTIONS TO VISIBILITY.


SDZ001>005-009-010-012>017-221900-
NORTHWEST AND NORTH CENTRAL SOUTH DAKOTA

CITY           SKY/WX    TMP DP  RH WIND       PRES   REMARKS
BUFFALO          N/A     61  37  41 W25       29.90F
FAITH            N/A     58  33  39 W20       29.94F
MOBRIDGE       CLOUDY    38  23  55 S10       29.90F
$$

SDZ012>016-024>037-041>051-057-063-072>074-221900-
SOUTHWEST AND SOUTH CENTRAL SOUTH DAKOTA

CITY           SKY/WX    TMP DP  RH WIND       PRES   REMARKS
RAPID CTY ARPT SUNNY     71  37  28 NW26G41   30.02F
PIERRE         SUNNY     40  25  55 CALM      29.98F
CUSTER         SUNNY     59  32  36 NW18G25   30.13S
ELLSWORTH AFB  SUNNY     70  37  30 NW29G37   30.00F
PHILIP         SUNNY     58  36  43 W6        29.99F
PINE RIDGE     SUNNY     59  37  44 W12       30.09F
SPEARFISH      FAIR      63  37  39 W18G31    30.05F
WINNER         FAIR      51  32  48 SW10      30.01F
$$

SDZ004>011-016>023-039-040-221900-
NORTHEAST SOUTH DAKOTA

CITY           SKY/WX    TMP DP  RH WIND       PRES   REMARKS
ABERDEEN       CLOUDY    30  15  53 S17       30.00F WCI  18
WATERTOWN      CLOUDY    29  15  56 S14       30.05F WCI  18
BROOKINGS      CLOUDY    31  14  49 S17       30.09F WCI  19
SISSETON         N/A     31  15  52 S14       30.03F WCI  21
$$

SDZ017-020-022-023-036>040-048>070-221900-
SOUTHEAST SOUTH DAKOTA

CITY           SKY/WX    TMP DP  RH WIND       PRES   REMARKS
SIOUX FALLS    PTSUNNY   33  15  47 S18       30.14F WCI  22
HURON          CLOUDY    31  17  56 S15G22    30.05F WCI  20
CHAMBERLAIN    CLOUDY    44  27  52 S8        30.00F
MITCHELL       CLOUDY    36  17  46 S13       30.08F
YANKTON        CLOUDY    36  16  44 S13       30.14F
$$

ABBREVIATIONS USED IN REMARKS
   TC - TEMPERATURE IN CELSIUS
  WCI - WIND CHILL INDEX
   HX - HEAT INDEX
  VSB - VISIBILITY





USA.gov is the U.S. government's official web portal to all federal, state and local government web resources and services.